Retour au catalogue

STARLINK-30471

ActifCommunicationsVLEO
NORAD 57932·PAYLOAD·🇺🇸 United States

Lancé Sep 24, 2023 depuis Cape Canaveral Space Force Station

Loading…

Prochains Passages (prochaines 24 heures)

TLE

FraisSource: CelesTrak SupGP

Époque: Sep 15, 2026, 01:59 UTC

1 57932C 23147V   26258.08312500  .00035867  00000+0  12991-2 0  2585
2 57932  43.0024 335.2816 0001501 257.9720 228.5033 15.27560957    19

Suivez STARLINK-30471 en temps réel avec AllMySat

Download on the App Store